Toronto, Ontario

7:18 PM EST on November 21, 2017 (GMT -0500)
Toronto

Weather History for CYTZ - November, 2013

Change the Weather History Date:

Wednesday, November 27, 2013

  Actual Average Record
Temperature  
Mean Temperature 28 °F -  
Max Temperature 33 °F 36 °F 51 °F (2006)
Min Temperature 21 °F 25 °F 19 °F (1996)
Degree Days  
Heating Degree Days 37    
Moisture  
Dew Point 24 °F    
Average Humidity 79    
Maximum Humidity 100    
Minimum Humidity 54    
Precipitation  
Precipitation 0.08 in 0.10 in - ()
Sea Level Pressure  
Sea Level Pressure 29.79 in    
Wind  
Wind Speed 10 mph ()    
Max Wind Speed 23 mph    
Max Gust Speed 34 mph    
Visibility 7.1 miles    
Events Rain , Snow    
Averages and records for this station are not official NWS values.
T = Trace of Precipitation, MM = Missing Value Source: Averaged Metar Reports

Daily Weather History Graph

Daily Weather History Graph

Search for Another Location

Airport or City:

Trip Planner

Search our weather history database for the weather conditions in past years. The results will help you decide how hot, cold, wet, or windy it might be!

Date:

Astronomy

Nov. 27, 2013 Rise Set
Actual Time 7:26 AM EST 4:43 PM EST
Civil Twilight 6:54 AM EST 5:15 PM EST
Nautical Twilight 6:19 AM EST 5:50 PM EST
Astronomical Twilight 5:45 AM EST 6:25 PM EST
Moon 1:16 AM EST (11/27) 1:29 PM EST (11/27)
Length of Visible Light 10h 20m
Length of Day
9h 16m
Waning Crescent, 32% of the Moon is Illuminated
Nov 27
Waning Crescent
Dec 2
New
Dec 9
First Quarter
Dec 17
Full
Dec 25
Last Quarter

Hourly Weather History & Observations

Time (EST) Temp. Windchill Dew Point Humidity Pressure Visibility Wind Dir Wind Speed Gust Speed Precip Events Conditions
12:00 AM 32.0 °F 28.7 °F 32.0 °F 100% 29.85 in 1.0 mi WNW 3.5 mph - N/A Snow Light Snow
1:00 AM 33 °F - 32 °F 96% 29.82 in 1 mi NNW 5.8 mph - - Snow Light Snow
1:00 AM 33.8 °F 28.6 °F 32.0 °F 93% 29.82 in 1.0 mi NNW 5.8 mph - N/A Snow Light Snow
1:49 AM 33.8 °F 28.6 °F 32.0 °F 93% 29.80 in 1.8 mi NW 5.8 mph - N/A Snow Light Snow
2:00 AM 33.8 °F 29.6 °F 32.0 °F 93% 29.79 in 2.0 mi NW 4.6 mph - N/A Snow Light Snow
2:31 AM 33.8 °F 28.6 °F 32.0 °F 93% 29.79 in 1.8 mi NW 5.8 mph - N/A Snow Light Snow
2:38 AM 33.8 °F 28.6 °F 32.0 °F 93% 29.78 in 1.8 mi NW 5.8 mph - N/A Snow Light Snow
3:00 AM 33.8 °F 27.0 °F 32.0 °F 93% 29.77 in 1.8 mi NW 8.1 mph - N/A Snow Light Snow
3:05 AM 33.8 °F 28.6 °F 32.0 °F 93% 29.77 in 2.0 mi NNW 5.8 mph - N/A Snow Light Snow
3:11 AM 33.8 °F 28.6 °F 32.0 °F 93% 29.76 in 3.0 mi NW 5.8 mph - N/A Snow Light Snow
3:15 AM 33.8 °F 28.6 °F 32.0 °F 93% 29.77 in 3.0 mi NW 5.8 mph - N/A Rain , Snow Light Snow
3:20 AM 33.8 °F 27.7 °F 30.2 °F 87% 29.77 in 4.0 mi NW 6.9 mph - N/A Rain Light Rain
3:30 AM 33.8 °F - 32.0 °F 93% 29.76 in 6.0 mi Variable 2.3 mph - N/A Rain Light Rain
3:38 AM 33.8 °F 30.8 °F 30.2 °F 87% 29.75 in 8.0 mi NNW 3.5 mph - N/A   Overcast
4:00 AM 33.8 °F 27.7 °F 30.2 °F 87% 29.75 in 8.0 mi NW 6.9 mph - N/A   Overcast
4:43 AM 33.8 °F 28.6 °F 30.2 °F 87% 29.74 in 5.0 mi NW 5.8 mph - N/A   Overcast
5:00 AM 33.8 °F 28.6 °F 30.2 °F 87% 29.75 in 4.0 mi WNW 5.8 mph - N/A   Overcast
6:00 AM 33.8 °F 26.4 °F 30.2 °F 87% 29.74 in 5.0 mi NW 9.2 mph - N/A   Haze
6:24 AM 33.8 °F 27.0 °F 28.4 °F 81% 29.73 in 6.0 mi NW 8.1 mph - N/A   Overcast
6:58 AM 32.0 °F 23.0 °F 30.2 °F 93% 29.74 in 6.0 mi NW 11.5 mph 18.4 mph N/A Snow Light Snow
7:00 AM 33 °F - 29 °F 81% 29.74 in 6 mi NW 11.5 mph - - Snow Light Snow
7:00 AM 32.0 °F 22.1 °F 30.2 °F 93% 29.74 in 6.0 mi NW 13.8 mph - N/A Snow Light Snow
7:38 AM 33.8 °F 25.3 °F 28.4 °F 81% 29.75 in 9.0 mi NW 11.5 mph 18.4 mph N/A Snow Light Snow
7:43 AM 33.8 °F 25.3 °F 28.4 °F 81% 29.74 in 9.0 mi NW 11.5 mph 19.6 mph N/A   Overcast
7:54 AM 33.8 °F 24.3 °F 28.4 °F 81% 29.74 in 9.0 mi NW 13.8 mph 26.5 mph N/A   Overcast
8:00 AM 33.8 °F 24.3 °F 28.4 °F 81% 29.74 in 9.0 mi NW 13.8 mph 26.5 mph N/A   Mostly Cloudy
8:22 AM 33.8 °F 23.2 °F 28.4 °F 81% 29.74 in 9.0 mi NW 17.3 mph 25.3 mph N/A   Mostly Cloudy
8:28 AM 32.0 °F 22.1 °F 26.6 °F 80% 29.75 in 9.0 mi NW 13.8 mph 25.3 mph N/A   Mostly Cloudy
9:00 AM 32.0 °F 19.2 °F 26.6 °F 80% 29.74 in 9.0 mi NW 23.0 mph 31.1 mph N/A   Mostly Cloudy
10:00 AM 32.0 °F 21.6 °F 24.8 °F 75% 29.75 in 9.0 mi NNW 15.0 mph 25.3 mph N/A   Overcast
11:00 AM 33.8 °F 22.8 °F 23.0 °F 65% 29.73 in 9.0 mi NNW 18.4 mph 29.9 mph N/A   Overcast
12:00 PM 33.8 °F 22.8 °F 23.0 °F 65% 29.73 in 9.0 mi NW 18.4 mph 25.3 mph N/A   Overcast
1:00 PM 33 °F - 23 °F 54% 29.72 in 10 mi NW 13.8 mph - -   Overcast
1:00 PM 33.8 °F 24.8 °F 23.0 °F 65% 29.72 in 9.0 mi NNW 12.7 mph 25.3 mph N/A   Overcast
2:00 PM 32.0 °F 21.2 °F 21.2 °F 64% 29.72 in 9.0 mi NW 16.1 mph 27.6 mph N/A   Scattered Clouds
2:34 PM 30.2 °F 18.5 °F 23.0 °F 75% 29.73 in 9.0 mi NW 17.3 mph 28.8 mph N/A Snow Light Snow
2:37 PM 30.2 °F 18.1 °F 23.0 °F 75% 29.73 in 5.0 mi NW 18.4 mph 28.8 mph N/A Snow Light Snow
2:47 PM 32.0 °F 21.6 °F 21.2 °F 64% 29.74 in 6.0 mi NW 15.0 mph 27.6 mph N/A Snow Light Snow
2:51 PM 30.2 °F 19.3 °F 21.2 °F 69% 29.73 in 9.0 mi NW 15.0 mph 24.2 mph N/A   Mostly Cloudy
3:00 PM 30.2 °F 18.5 °F 21.2 °F 69% 29.74 in 9.0 mi WNW 17.3 mph - N/A   Mostly Cloudy
3:09 PM 30.2 °F 18.5 °F 21.2 °F 69% 29.74 in 9.0 mi WNW 17.3 mph 26.5 mph N/A Snow Light Snow
3:21 PM 30.2 °F 17.4 °F 17.6 °F 60% 29.75 in 9.0 mi NW 20.7 mph 28.8 mph N/A   Scattered Clouds
4:00 PM 30.2 °F 17.1 °F 17.6 °F 60% 29.77 in 9.0 mi NW 21.9 mph 29.9 mph N/A   Partly Cloudy
5:00 PM 28.4 °F 15.8 °F 19.4 °F 69% 29.81 in 9.0 mi West 18.4 mph 26.5 mph N/A Snow Light Snow
5:15 PM 28.4 °F 16.2 °F 19.4 °F 69% 29.82 in 9.0 mi WNW 17.3 mph 28.8 mph N/A   Overcast
5:20 PM 28.4 °F 16.2 °F 19.4 °F 69% 29.82 in 9.0 mi NW 17.3 mph 34.5 mph N/A Snow Light Snow
6:00 PM 26.6 °F 13.8 °F 21.2 °F 80% 29.84 in 9.0 mi NNW 17.3 mph 24.2 mph N/A Snow Light Snow
6:39 PM 26.6 °F 14.3 °F 17.6 °F 69% 29.85 in 9.0 mi NNW 16.1 mph 23.0 mph N/A   Mostly Cloudy
6:48 PM 24.8 °F 10.3 °F 17.6 °F 74% 29.85 in 9.0 mi NW 20.7 mph 28.8 mph N/A Snow Light Snow
6:57 PM 24.8 °F 12.4 °F 17.6 °F 74% 29.86 in 9.0 mi NW 15.0 mph 27.6 mph N/A Snow Light Snow
7:00 PM 25 °F - 18 °F 63% 29.86 in 10 mi NW 15.0 mph - - Snow Light Snow
7:00 PM 24.8 °F 11.9 °F 17.6 °F 74% 29.86 in 9.0 mi NW 16.1 mph 26.5 mph N/A Snow Light Snow
7:04 PM 24.8 °F 10.7 °F 17.6 °F 74% 29.86 in 9.0 mi NNW 19.6 mph 28.8 mph N/A Snow Light Snow
7:20 PM 24.8 °F 12.4 °F 17.6 °F 74% 29.87 in 9.0 mi NW 15.0 mph 27.6 mph N/A   Partly Cloudy
8:00 PM 24.8 °F 12.9 °F 17.6 °F 74% 29.88 in 9.0 mi NW 13.8 mph 26.5 mph N/A   Clear
8:32 PM 23.0 °F 10.1 °F 15.8 °F 74% 29.89 in 9.0 mi NNW 15.0 mph 27.6 mph N/A Snow Light Snow
8:56 PM 23.0 °F 9.2 °F 15.8 °F 74% 29.90 in 9.0 mi NNW 17.3 mph 25.3 mph N/A   Partly Cloudy
8:59 PM 23.0 °F 8.7 °F 15.8 °F 74% 29.90 in 9.0 mi NW 18.4 mph 26.5 mph N/A Snow Light Snow
9:00 PM 23.0 °F 9.2 °F 15.8 °F 74% 29.90 in 9.0 mi NNW 17.3 mph 26.5 mph N/A Snow Light Snow
9:21 PM 23.0 °F 11.1 °F 15.8 °F 74% 29.91 in 9.0 mi NW 12.7 mph 28.8 mph N/A   Clear
10:00 PM 23.0 °F 8.3 °F 15.8 °F 74% 29.93 in 9.0 mi NW 19.6 mph 27.6 mph N/A   Clear
11:00 PM 21.2 °F 6.8 °F 14.0 °F 74% 29.95 in 9.0 mi NW 17.3 mph 25.3 mph N/A   Clear